AAL2759 KSAT-KDFW

Flight info

Callsign AAL2759
Flight time N/A
Altitude 29000
Route YODUH2 YODUH GUTZZ SOCKK4
Aircraft B738/M-SDE2E3FGHIRWXY/LB1

Departure

Time 2026-05-01 14:59
Airport San Antonio International Airport (KSAT)

Arrival

Time N/A
Airport Dallas Fort Worth International Airport (KDFW)
Time Latitude Longitude Altitude Speed Heading
2026-05-01 14:42 29.52826 -98.47189 790 ft 0 kts 329°
2026-05-01 14:50 29.52825 -98.47189 790 ft 0 kts 330°
2026-05-01 14:51 29.52815 -98.47180 790 ft 2 kts 324°
2026-05-01 14:51 29.52790 -98.47166 790 ft 1 kts
2026-05-01 14:52 29.52778 -98.47174 790 ft 0 kts 41°
2026-05-01 14:54 29.52786 -98.47152 790 ft 4 kts 75°
2026-05-01 14:54 29.52797 -98.47115 789 ft 5 kts 63°
2026-05-01 14:54 29.52828 -98.47079 788 ft 7 kts 43°
2026-05-01 14:54 29.52852 -98.47030 787 ft 7 kts 96°
2026-05-01 14:55 29.52824 -98.46979 786 ft 7 kts 131°
2026-05-01 14:55 29.52792 -98.46937 786 ft 6 kts 132°
2026-05-01 14:55 29.52764 -98.46902 786 ft 5 kts 131°
2026-05-01 14:55 29.52732 -98.46860 786 ft 8 kts 131°
2026-05-01 14:56 29.52692 -98.46820 786 ft 7 kts 165°
2026-05-01 14:56 29.52645 -98.46840 786 ft 9 kts 223°
2026-05-01 14:56 29.52587 -98.46899 787 ft 11 kts 221°
2026-05-01 14:56 29.52534 -98.46952 788 ft 9 kts 221°
2026-05-01 14:57 29.52490 -98.46995 789 ft 7 kts 221°
2026-05-01 14:57 29.52430 -98.47053 790 ft 5 kts 213°
2026-05-01 14:57 29.52369 -98.47034 790 ft 11 kts 135°
2026-05-01 14:58 29.52336 -98.46989 789 ft 3 kts 94°
2026-05-01 14:58 29.52356 -98.46958 788 ft 0 kts 42°
2026-05-01 14:58 29.52356 -98.46957 788 ft 0 kts 42°
2026-05-01 14:58 29.52459 -98.46857 786 ft 58 kts 40°
2026-05-01 14:59 29.53003 -98.46321 777 ft 142 kts 40°
2026-05-01 14:59 29.53848 -98.45487 1342 ft 169 kts 39°
2026-05-01 14:59 29.54676 -98.44714 2369 ft 152 kts 40°
2026-05-01 14:59 29.55509 -98.43920 2949 ft 162 kts 41°
2026-05-01 15:00 29.57337 -98.42123 3984 ft 193 kts 43°
2026-05-01 15:00 29.58407 -98.41073 4519 ft 211 kts 43°
2026-05-01 15:00 29.59568 -98.39938 5059 ft 230 kts 43°
2026-05-01 15:01 29.60837 -98.38698 5645 ft 246 kts 44°
2026-05-01 15:01 29.62170 -98.37389 6275 ft 260 kts 44°